[[{"header":{"parameterUnit":"m.s-1","parameterCategory":1,"la1":30.2991,"la2":30.254,"lo1":-89.0895,"lo2":-89.0444,"dy":0.0017,"dx":0.0017,"nx":28,"ny":28,"refTime":"2025-12-18T03:00:00:Z","depth":0,"parameterNumber":2,"parameterNumberName":"U-component_of_WINDS"},"data":[0,0,0,0,0,0,0,0,0,0,0,0,0,0,0,0,0,0,0,0,0,0,0,0,0,0,0,0,0,0,0,0,0,0,0,0,0,0,0,0,0,0,0,0,0,0,0,0,0,0,0,0,0,0,0,0,0,0,0.0571,0.0571,0,0.0531,0.0531,0.053,0.0489,0.0488,0.0488,0.0487,0.0445,0.0445,0.0444,0,0,0,0,0,0,0,0,0,0,0,0,0,0.0611,0.0611,0.0571,0.0571,0.057,0.0531,0.0531,0.053,0.0489,0.0488,0.0488,0.0487,0.0446,0.0445,0.0444,0,0,0,0,0,0,0,0,0,0,0,0,0,0.0585,0.0611,0.0571,0.0545,0.0542,0.0531,0.053,0.053,0.0489,0.0488,0.0487,0.0487,0.0446,0.0445,0.0444,0.0455,0,0,0.0441,0.0441,0,0,0,0,0,0,0,0,0.0586,0.0583,0.0549,0.0547,0.0544,0.0514,0.0529,0.0505,0.0489,0.0509,0.0487,0.0486,0.0469,0.0466,0.046,0.0453,0.0452,0.0441,0.0441,0.044,0.044,0,0,0,0,0,0,0,0.0588,0.0585,0.0555,0.0549,0.0545,0.0535,0.053,0.0524,0.0494,0.0507,0.0504,0.05,0.0467,0.0461,0.0459,0.0451,0.0441,0.044,0.044,0.044,0.0452,0.0453,0,0,0,0,0,0,0.0594,0.0587,0.0556,0.0554,0.0563,0.0535,0.053,0.0524,0.0494,0.0489,0.0501,0.0499,0.0463,0.046,0.0457,0.0469,0.044,0.0439,0.0439,0.0451,0.0452,0.0453,0,0,0,0,0,0,0.0595,0.0592,0.0558,0.0569,0.0564,0.0535,0.053,0.0524,0.0518,0.0489,0.0484,0.0501,0.0462,0.0459,0.0456,0.0467,0.0439,0.0438,0.045,0.0451,0.0453,0.0493,0,0,0,0,0,0,0.0597,0.0592,0.0597,0.057,0.0564,0.0558,0.053,0.0524,0.0517,0.0513,0.0487,0.0482,0.0461,0.0458,0.0456,0.0466,0.0438,0.0449,0.0451,0.0452,0.0491,0.0496,0.05,0,0,0,0,0,0.0598,0.0609,0.0597,0.0594,0.0569,0.0559,0.0555,0.0531,0.0518,0.0522,0.0503,0.0483,0.0466,0.0458,0.0455,0.0465,0.0448,0.045,0.0452,0.0489,0.0495,0.05,0,0,0,0,0,0,0.0638,0.0605,0.0591,0.0594,0.058,0.0552,0.0556,0.0538,0.0527,0.0524,0.0494,0.0489,0.049,0.0477,0.0468,0.0475,0.0454,0.0456,0.0483,0.0489,0.0493,0.0497,0.0437,0,0,0,0,0,0.0647,0.0642,0.0614,0.0619,0.0612,0.0586,0.058,0.0563,0.0547,0.054,0.0521,0.0506,0.0497,0.0492,0.0482,0.0488,0.0483,0.0494,0.0498,0.0502,0.0504,0.0507,0.0512,0.046,0.046,0.0459,0,0,0.0665,0.0647,0.0646,0.0626,0.0613,0.0609,0.0581,0.0577,0.0573,0.0539,0.0537,0.0522,0.0503,0.0506,0.0505,0.0495,0.0517,0.0505,0.0508,0.0508,0.051,0.0515,0.0519,0.0461,0.0461,0.046,0,0,0.0697,0.0683,0.0686,0.0673,0.0654,0.0636,0.0637,0.0612,0.0601,0.0598,0.0573,0.0568,0.0553,0.0541,0.0533,0.0561,0.0542,0.0558,0.0582,0.0586,0.059,0.0593,0.0604,0.0608,0.056,0.056,0.056,0,0.0723,0.0716,0.069,0.0688,0.068,0.065,0.0653,0.0642,0.062,0.0616,0.0604,0.0585,0.057,0.0569,0.0576,0.057,0.0571,0.0561,0.0591,0.0595,0.0598,0.0608,0.0612,0.0562,0.0562,0.0562,0.0561,0,0.0748,0.0744,0.0749,0.0729,0.0722,0.0723,0.0697,0.0693,0.0676,0.066,0.0657,0.0638,0.0624,0.0622,0.0606,0.062,0.0614,0.0597,0.0576,0.0605,0.0614,0.0618,0.0565,0.0564,0.0564,0.0563,0,0,0.0804,0.0771,0.0773,0.0764,0.0741,0.0737,0.0736,0.0723,0.072,0.0706,0.0705,0.0694,0.0678,0.0669,0.0651,0.0654,0.0678,0.0637,0.0636,0.0646,0.0693,0.0707,0.0712,0.0665,0.0666,0.0666,0.0695,0,0.0833,0.0831,0.0808,0.0812,0.0807,0.0779,0.0778,0.0764,0.0748,0.0742,0.0725,0.0718,0.0697,0.0692,0.0693,0.0675,0.0688,0.0672,0.0665,0.0665,0.0672,0.0716,0.073,0.0758,0.0698,0.0699,0.0699,0,0.0866,0.0855,0.0859,0.0836,0.0833,0.0833,0.082,0.0814,0.0797,0.0786,0.0776,0.0756,0.0753,0.0734,0.073,0.0721,0.0716,0.0706,0.0707,0.0706,0.0685,0.0717,0.0767,0.0771,0.0704,0.0704,0.0704,0,0.0908,0.0893,0.0894,0.0887,0.086,0.0861,0.085,0.0832,0.0826,0.0814,0.081,0.0798,0.0791,0.0782,0.0759,0.0747,0.0759,0.0737,0.075,0.0751,0.0755,0.0755,0.0805,0.075,0.075,0.075,0.075,0,0.0942,0.0946,0.0913,0.0913,0.0917,0.089,0.0895,0.088,0.0865,0.0862,0.0836,0.0834,0.0803,0.0798,0.0779,0.078,0.0777,0.0768,0.0763,0.0771,0.0772,0.0768,0.0766,0.0751,0.0751,0.0751,0.075,0,0.099,0.0967,0.0967,0.0941,0.0935,0.0939,0.0917,0.0917,0.09,0.0897,0.0895,0.0868,0.0861,0.0836,0.0822,0.081,0.0817,0.0807,0.0823,0.082,0.0835,0.0834,0.0884,0.089,0.0831,0.0832,0.0832,0,0.1014,0.1016,0.0992,0.0989,0.0979,0.0973,0.0967,0.0941,0.0936,0.0917,0.0919,0.0909,0.09,0.0889,0.0869,0.0858,0.0849,0.0867,0.0847,0.0855,0.085,0.0851,0.0851,0.0872,0.0872,0.0873,0.0874,0,0.106,0.1049,0.1041,0.103,0.1024,0.1014,0.1002,0.1001,0.0972,0.0967,0.0959,0.0952,0.0939,0.093,0.0916,0.0904,0.0884,0.088,0.0883,0.0891,0.0901,0.0897,0.0836,0.0879,0.0879,0.0878,0.0878,0.0878,0.1096,0.1098,0.1081,0.1074,0.1062,0.1052,0.1051,0.1034,0.1028,0.1015,0.1,0.0994,0.0977,0.0957,0.0946,0.0941,0.0931,0.0934,0.0935,0.0937,0.0941,0.0901,0.0938,0.0938,0.0938,0.0938,0.0938,0,0.1142,0.1129,0.1123,0.1108,0.1103,0.1085,0.1071,0.1068,0.1064,0.105,0.1042,0.1033,0.1024,0.1003,0.0993,0.0993,0.0984,0.0991,0.0991,0.0989,0.095,0.095,0.0999,0.0999,0.0999,0.0999,0.0999,0.0999,0.1164,0.1166,0.1153,0.1149,0.1137,0.1131,0.1125,0.1116,0.1105,0.1097,0.109,0.1076,0.106,0.1048,0.1039,0.1033,0.1031,0.1041,0.1032,0.0997,0.0991,0.0986,0.0985,0.1041,0.1041,0.1071,0.1072,0.1072]},{"header":{"parameterUnit":"m.s-1","parameterCategory":1,"la1":30.2991,"la2":30.254,"lo1":-89.0895,"lo2":-89.0444,"dy":0.0017,"dx":0.0017,"nx":28,"ny":28,"refTime":"2025-12-18T03:00:00:Z","depth":0,"parameterNumber":3,"parameterNumberName":"V-component_of_WINDS"},"data":[0,0,0,0,0,0,0,0,0,0,0,0,0,0,0,0,0,0,0,0,0,0,0,0,0,0,0,0,0,0,0,0,0,0,0,0,0,0,0,0,0,0,0,0,0,0,0,0,0,0,0,0,0,0,0,0,0,0,1.9936,1.9936,0,1.9977,1.9978,1.9978,1.9987,1.9986,1.9986,1.9986,2.0026,2.0027,2.0029,0,0,0,0,0,0,0,0,0,0,0,0,0,1.9862,1.9863,1.9936,1.9936,1.9937,1.9977,1.9978,1.9978,1.9987,1.9986,1.9986,1.9986,2.0026,2.0027,2.0029,0,0,0,0,0,0,0,0,0,0,0,0,0,1.9898,1.9864,1.9936,1.9946,1.9947,1.9977,1.9978,1.9978,1.9987,1.9986,1.9986,1.9986,2.0025,2.0027,2.0029,2.0051,0,0,2.0035,2.0036,0,0,0,0,0,0,0,0,1.9896,1.99,1.9944,1.9945,1.9947,1.9976,1.9966,2.0003,1.9987,1.9972,1.9986,1.9985,2.001,2.0013,2.0022,2.0053,2.0054,2.0036,2.0037,2.0038,2.0038,0,0,0,0,0,0,0,1.9893,1.9899,1.9952,1.9944,1.9946,1.9948,1.9952,1.9973,1.9993,1.9973,1.9974,1.9979,2.001,2.002,2.0023,2.0055,2.0035,2.0037,2.0039,2.0039,2.0106,2.0107,0,0,0,0,0,0,1.9889,1.9897,1.9951,1.9953,1.992,1.995,1.9955,1.9967,1.9993,1.9996,1.9979,1.9979,2.0017,2.002,2.0024,2.0052,2.0038,2.0039,2.0041,2.0106,2.0106,2.0107,0,0,0,0,0,0,1.9888,1.9894,1.9949,1.9925,1.9932,1.9951,1.9965,1.9968,1.9978,1.9997,2.0,1.9985,2.0016,2.0021,2.0044,2.0054,2.004,2.0042,2.0105,2.0106,2.0107,2.0107,0,0,0,0,0,0,1.9885,1.9893,1.9902,1.9925,1.9934,1.9969,1.9966,1.9969,1.9981,1.9982,2.0004,2.0007,2.0016,2.0041,2.0046,2.0056,2.0044,2.0104,2.0105,2.0106,2.0107,2.0108,2.0109,0,0,0,0,0,1.9883,1.99,1.9903,1.9909,1.9945,1.997,1.9974,1.9986,1.9982,1.9991,2.0004,2.0006,2.0051,2.0044,2.0049,2.006,2.0104,2.0105,2.0106,2.0106,2.0108,2.0109,0,0,0,0,0,0,1.9877,1.9903,1.9906,1.9932,1.9949,1.9971,1.9983,1.9987,2.0004,2.0004,2.0016,2.0021,2.0044,2.0054,2.0045,2.0082,2.0077,2.008,2.0075,2.0077,2.0078,2.0076,2.0046,0,0,0,0,0,1.9879,1.9897,1.9919,1.9939,1.9947,1.9964,1.9975,1.9982,1.9999,2.0006,2.002,2.0037,2.0055,2.0066,2.0084,2.0108,2.0113,2.0118,2.0119,2.012,2.0122,2.0137,2.0139,2.0111,2.0111,2.0111,0,0,1.9882,1.9899,1.991,1.9938,1.9952,1.9971,1.9969,1.9989,2.0002,2.0009,2.0032,2.0043,2.0062,2.0086,2.0097,2.0095,2.0131,2.0122,2.0122,2.0124,2.0138,2.0141,2.0143,2.0112,2.0112,2.0112,0,0,1.9899,1.9913,1.9932,1.9946,1.9967,1.9978,1.9982,2.0004,2.0012,2.0036,2.0041,2.0057,2.0087,2.0101,2.0112,2.0133,2.0137,2.0138,2.0146,2.016,2.0162,2.0164,2.0173,2.0176,2.014,2.014,2.014,0,1.99,1.9929,1.9941,1.996,1.9973,1.998,1.9999,2.0012,2.0037,2.0046,2.0043,2.0082,2.0095,2.0123,2.0128,2.0136,2.0142,2.0137,2.0161,2.0163,2.0165,2.0174,2.0177,2.0141,2.0141,2.0141,2.0141,0,1.9931,1.995,1.9963,1.9989,2.0002,2.0021,2.0036,2.0048,2.0054,2.0065,2.0088,2.0104,2.0126,2.0132,2.0138,2.0161,2.0159,2.0159,2.0154,2.0168,2.0176,2.0179,2.0141,2.0141,2.0141,2.0141,0,0,1.9945,1.9977,1.9982,1.9994,2.0018,2.0033,2.0052,2.0074,2.0084,2.0101,2.0118,2.0144,2.0143,2.0156,2.0163,2.0174,2.0192,2.0172,2.0173,2.0176,2.0219,2.022,2.0224,2.0193,2.0194,2.0195,2.0218,0,1.9966,2.0002,2.0013,2.0042,2.0061,2.0068,2.0085,2.0101,2.0111,2.0128,2.0139,2.0158,2.0155,2.0163,2.0175,2.0187,2.0201,2.0185,2.0209,2.021,2.0206,2.0228,2.0229,2.0251,2.0221,2.0221,2.0222,0,1.9994,2.0013,2.0045,2.0067,2.0075,2.009,2.0111,2.0127,2.0145,2.0152,2.0166,2.0172,2.0192,2.0185,2.0213,2.0203,2.0213,2.022,2.0221,2.0225,2.0218,2.0233,2.0257,2.0261,2.0227,2.0226,2.0226,0,2.0004,2.0036,2.006,2.007,2.0096,2.0106,2.0117,2.0135,2.0148,2.0165,2.0174,2.0193,2.0204,2.0219,2.023,2.0224,2.0257,2.0251,2.0263,2.0263,2.0271,2.027,2.0298,2.0275,2.0275,2.0275,2.0275,0,2.0026,2.0045,2.0065,2.0079,2.0101,2.0113,2.0135,2.0146,2.0162,2.0178,2.0184,2.02,2.0213,2.023,2.0238,2.026,2.0265,2.0271,2.0273,2.0271,2.0271,2.0279,2.0278,2.0276,2.0276,2.0276,2.0276,0,2.004,2.0054,2.008,2.0103,2.0109,2.0124,2.0143,2.0157,2.0168,2.0189,2.0194,2.0211,2.0231,2.0243,2.0268,2.0274,2.0299,2.03,2.0293,2.0295,2.0307,2.0306,2.0342,2.0348,2.0319,2.032,2.032,0,2.0055,2.007,2.0094,2.0106,2.0118,2.0137,2.015,2.0162,2.0175,2.0197,2.0208,2.0229,2.0247,2.0279,2.0293,2.0312,2.0314,2.0325,2.0317,2.0315,2.0316,2.0315,2.0317,2.0327,2.0327,2.0328,2.0328,0,2.0079,2.0085,2.0103,2.0125,2.014,2.0157,2.0174,2.0183,2.0198,2.0212,2.0234,2.0247,2.0274,2.0294,2.0315,2.0326,2.033,2.033,2.0334,2.0333,2.0329,2.0333,2.0299,2.033,2.0329,2.0329,2.0329,2.0329,2.0094,2.0109,2.0128,2.0149,2.0163,2.0179,2.0194,2.0206,2.0224,2.0247,2.0253,2.0275,2.0293,2.0321,2.0333,2.035,2.0348,2.0354,2.0355,2.0357,2.0358,2.0325,2.0354,2.0353,2.0353,2.0353,2.0353,0,2.012,2.0133,2.0152,2.0176,2.0192,2.0194,2.0213,2.0226,2.0246,2.0263,2.028,2.0305,2.0325,2.034,2.0361,2.0372,2.0374,2.0377,2.0377,2.0379,2.0358,2.0353,2.0375,2.0375,2.0375,2.0375,2.0375,2.0375,2.0135,2.016,2.0168,2.0199,2.0212,2.0235,2.0246,2.026,2.0273,2.0301,2.0318,2.0328,2.0344,2.0366,2.0384,2.0388,2.0396,2.0399,2.0403,2.0383,2.0381,2.0379,2.0374,2.04,2.04,2.0423,2.0423,2.0424]}]]